{"data":{"norad_id":36037,"intl_designator":"2009-059B","name":"PROBA-2","alt_names":[],"object_type":"PAYLOAD","status":"ACTIVE","operator":null,"country":"ESA","launch_date":"2009-11-02","launch_site_code":"PLMSC","launch_vehicle":null,"mission":null,"orbit_class":"UNKNOWN","rcs_meters":0.442,"size_class":null,"mass_kg":null,"dimensions":null,"purposes":["tech_demo"],"wikipedia_slug":null,"has_3d_model":false,"image_url":null,"decayed_at":null,"tle_current":{"epoch":"2026-05-25T01:30:46.891872Z","epoch_age_seconds":79772,"freshness":"FRESH","line1":"1 36037U 09059B   26145.06304273  .00000142  00000+0  43528-4 0  9997","line2":"2 36037  98.2450 328.7370 0013130 358.1363   1.9783 14.54850827878168","mean_motion":14.54850827,"eccentricity":0.001313,"inclination_deg":98.245,"raan_deg":328.737,"arg_perigee_deg":358.1363,"mean_anomaly_deg":1.9783,"bstar":4.3528e-5,"rev_number":87816,"period_min":98.97921994995,"perigee_km":700.54269296777,"apogee_km":719.15574477853,"semimajor_km":7087.9862188732,"source":"CELESTRAK","updated_at":"2026-05-25T13:38:24.894079Z"}}}